Location: Béaulencourt
(50.0796°N, 2.8795°E)
Time: 14:51:29
(UTC+00:00)

Cosmos 1190 Rocket - Visible Passes

Search period start: 11 April 2026 00:00
Search period end: 21 April 2026 00:00
Orbit: 751 x 776 km, 74.1° (Epoch: 11 April)

Date Brightness Start Highest point End Pass type
(mag) Time Alt. Az. Time Alt. Az. Time Alt. Az.
11 Apr 5.1 00:56:18 10° NNW 00:59:36 36° NW 00:59:36 36° NW visible
11 Apr 6.0 22:36:37 10° N 22:40:26 19° NE 22:41:38 18° ENE visible
12 Apr 4.7 00:17:51 10° NNW 00:21:47 51° NNW 00:21:47 51° NNW visible
12 Apr 6.3 02:01:30 10° WNW 02:01:56 11° WNW 02:01:56 11° WNW visible
12 Apr 6.4 21:58:53 10° N 22:01:35 14° NE 22:03:49 11° ENE visible
12 Apr 4.7 23:39:31 10° NNW 23:43:59 52° NNE 23:43:59 52° NNE visible
13 Apr 5.9 01:22:09 10° NW 01:24:08 18° WNW 01:24:08 18° WNW visible
13 Apr 5.1 23:01:18 10° NNW 23:06:12 37° NE 23:06:12 37° NE visible
14 Apr 5.4 00:43:21 10° NW 00:46:22 29° WNW 00:46:22 29° WNW visible
14 Apr 5.6 22:23:12 10° N 22:27:35 25° NE 22:28:26 24° ENE visible
15 Apr 4.8 00:04:46 10° NNW 00:08:36 45° NW 00:08:36 45° NW visible
15 Apr 6.0 21:45:15 10° N 21:48:49 18° NE 21:50:41 15° ENE visible
15 Apr 4.3 23:26:21 10° NNW 23:30:51 63° N 23:30:51 63° N visible
16 Apr 6.2 01:09:41 10° NW 01:11:01 14° WNW 01:11:01 14° WNW visible
16 Apr 6.4 21:07:37 10° N 21:09:56 13° NE 21:12:14 10° ENE visible
16 Apr 4.5 22:48:03 10° NNW 22:53:07 51° NE 22:53:07 51° NE visible
17 Apr 5.7 00:30:31 10° NW 00:33:17 23° WNW 00:33:17 23° WNW visible
17 Apr 5.1 22:09:51 10° N 22:14:41 34° NE 22:15:25 32° ENE visible
17 Apr 5.0 23:51:46 10° NW 23:55:35 38° WNW 23:55:35 38° WNW visible
18 Apr 5.6 21:31:46 10° N 21:36:00 23° NE 21:37:43 20° ENE visible
18 Apr 4.2 23:13:14 10° NNW 23:17:53 64° WNW 23:17:53 64° WNW visible
19 Apr 6.4 00:58:02 10° WNW 00:58:03 10° WNW 00:58:03 10° WNW visible
19 Apr 6.1 20:53:53 10° N 20:57:12 16° NE 21:00:03 11° ENE visible
19 Apr 4.0 22:34:51 10° NNW 22:40:11 73° ENE 22:40:13 73° ENE visible
20 Apr 6.0 00:17:55 10° NW 00:20:23 18° W 00:20:23 18° W visible
20 Apr 6.3 20:16:26 10° NNE 20:18:16 12° NE 20:20:07 10° NE visible
20 Apr 4.5 21:56:35 10° NNW 22:01:41 46° ENE 22:02:33 42° E visible
20 Apr 5.3 23:38:54 10° NW 23:42:43 29° W 23:42:43 29° W visible
